• In Germany
  • List of Countries
  • For 7 days
  • Water Temperature
  • Satellite Maps
  • Weather Map
  • Weather Widgets
  • user-avatar
    Login

    Hourly Weather Bolgatanga

    Today, 25 May, Friday

    Time Temperature Precipitation Wind Pressure Humidity
    00:00 +36°C° 0 mm 4 mps 740 mmHg 43%
    01:00 +35°C° 0 mm 4 mps 740 mmHg 45%
    02:00 +35°C° 0 mm 5 mps 740 mmHg 47%
    03:00 +34°C° 0 mm 5 mps 740 mmHg 48%
    04:00 +34°C° 0 mm 5 mps 740 mmHg 51%
    05:00 +33°C° 0 mm 5 mps 740 mmHg 54%
    06:00 +33°C° 0 mm 4 mps 740 mmHg 57%
    07:00 +34°C° 0 mm 5 mps 740 mmHg 55%
    08:00 +35°C° 0 mm 5 mps 741 mmHg 52%
    09:00 +36°C° 0 mm 5 mps 741 mmHg 49%
    10:00 +37°C° 0 mm 4 mps 741 mmHg 44%
    11:00 +40°C° 0 mm 4 mps 740 mmHg 40%
    12:00 +42°C° 0 mm 3 mps 740 mmHg 35%
    13:00 +43°C° 0 mm 3 mps 739 mmHg 32%
    14:00 +43°C° 0 mm 2 mps 739 mmHg 28%
    15:00 +45°C° 0 mm 2 mps 738 mmHg 25%
    16:00 +43°C° 0 mm 2 mps 738 mmHg 25%
    17:00 +43°C° 0 mm 2 mps 738 mmHg 26%
    18:00 +43°C° 0 mm 3 mps 738 mmHg 26%
    19:00 +42°C° 0 mm 3 mps 738 mmHg 29%
    20:00 +41°C° 0 mm 4 mps 738 mmHg 33%
    21:00 +40°C° 0 mm 5 mps 739 mmHg 36%
    22:00 +39°C° 0 mm 5 mps 739 mmHg 41%
    23:00 +36°C° 0 mm 5 mps 740 mmHg 45%

    Tomorrow, 26 May, Saturday

    Time Temperature Precipitation Wind Pressure Humidity
    00:00 +35°C° 0 mm 6 mps 740 mmHg 50%
    01:00 +34°C° 8 mm 6 mps 740 mmHg 58%
    02:00 +32°C° 8 mm 6 mps 740 mmHg 66%
    03:00 +30°C° 8 mm 6 mps 739 mmHg 75%
    04:00 +30°C° 0.1 mm 5 mps 740 mmHg 74%
    05:00 +30°C° 0.1 mm 4 mps 740 mmHg 73%
    06:00 +30°C° 0.1 mm 3 mps 740 mmHg 73%
    07:00 +30°C° 0 mm 3 mps 741 mmHg 70%
    08:00 +32°C° 0 mm 4 mps 741 mmHg 67%
    09:00 +33°C° 0 mm 4 mps 742 mmHg 64%
    10:00 +34°C° 0 mm 4 mps 741 mmHg 60%
    11:00 +35°C° 0 mm 5 mps 741 mmHg 55%
    12:00 +36°C° 0 mm 5 mps 741 mmHg 51%
    13:00 +37°C° 0 mm 5 mps 740 mmHg 48%
    14:00 +37°C° 0 mm 4 mps 740 mmHg 46%
    15:00 +38°C° 0 mm 4 mps 739 mmHg 44%
    16:00 +38°C° 0 mm 3 mps 739 mmHg 45%
    17:00 +37°C° 0 mm 3 mps 739 mmHg 45%
    18:00 +37°C° 0 mm 3 mps 739 mmHg 46%
    19:00 +36°C° 0 mm 3 mps 740 mmHg 48%
    20:00 +36°C° 0 mm 3 mps 740 mmHg 51%
    21:00 +35°C° 0 mm 3 mps 741 mmHg 53%
    22:00 +35°C° 0 mm 3 mps 741 mmHg 55%
    23:00 +34°C° 0 mm 4 mps 741 mmHg 56%

    Day after tomorrow, 27 May, Sunday

    Time Temperature Precipitation Wind Pressure Humidity
    00:00 +34°C° 0 mm 5 mps 741 mmHg 58%
    01:00 +33°C° 0 mm 5 mps 741 mmHg 59%
    02:00 +33°C° 0 mm 5 mps 741 mmHg 61%
    03:00 +32°C° 0 mm 5 mps 741 mmHg 63%
    04:00 +32°C° 0 mm 5 mps 741 mmHg 65%
    05:00 +30°C° 0 mm 5 mps 741 mmHg 66%
    06:00 +30°C° 0 mm 4 mps 741 mmHg 68%
    07:00 +30°C° 0.1 mm 4 mps 742 mmHg 68%
    08:00 +30°C° 0.1 mm 4 mps 743 mmHg 69%
    09:00 +30°C° 0.1 mm 4 mps 744 mmHg 70%
    10:00 +32°C° 1.5 mm 4 mps 744 mmHg 67%
    11:00 +31°C° 1.5 mm 3 mps 743 mmHg 65%
    12:00 +32°C° 1.5 mm 2 mps 743 mmHg 63%
    13:00 +31°C° 0.8 mm 3 mps 742 mmHg 62%
    14:00 +31°C° 0.8 mm 3 mps 742 mmHg 61%
    15:00 +32°C° 0.8 mm 4 mps 741 mmHg 61%
    16:00 +31°C° 0 mm 3 mps 741 mmHg 60%
    17:00 +32°C° 0 mm 2 mps 741 mmHg 59%
    18:00 +32°C° 0 mm 2 mps 741 mmHg 58%
    19:00 +32°C° 0 mm 1 mps 741 mmHg 60%
    20:00 +31°C° 0 mm 1 mps 742 mmHg 62%
    21:00 +31°C° 0 mm 1 mps 743 mmHg 64%
    22:00 +31°C° 0 mm 1 mps 743 mmHg 65%
    23:00 +30°C° 0 mm 2 mps 743 mmHg 67%

    28 May, Monday

    Time Temperature Precipitation Wind Pressure Humidity
    00:00 +30°C° 0 mm 2 mps 743 mmHg 69%
    01:00 +30°C° 0 mm 2 mps 743 mmHg 70%
    02:00 +29°C° 0 mm 2 mps 742 mmHg 71%
    03:00 +29°C° 0 mm 2 mps 742 mmHg 72%
    04:00 +29°C° 0 mm 2 mps 742 mmHg 73%
    05:00 +29°C° 0 mm 2 mps 743 mmHg 73%
    06:00 +29°C° 0 mm 2 mps 743 mmHg 73%
    07:00 +29°C° 0 mm 3 mps 743 mmHg 70%
    08:00 +30°C° 0 mm 3 mps 743 mmHg 66%
    09:00 +32°C° 0 mm 4 mps 744 mmHg 62%
    10:00 +34°C° 0 mm 4 mps 743 mmHg 56%
    11:00 +35°C° 0 mm 4 mps 743 mmHg 51%
    12:00 +37°C° 0 mm 3 mps 742 mmHg 45%
    13:00 +37°C° 0 mm 3 mps 742 mmHg 42%
    14:00 +38°C° 0 mm 3 mps 741 mmHg 38%
    15:00 +39°C° 0 mm 3 mps 740 mmHg 35%
    16:00 +39°C° 0 mm 3 mps 740 mmHg 36%
    17:00 +38°C° 0 mm 2 mps 740 mmHg 38%
    18:00 +38°C° 0 mm 2 mps 740 mmHg 39%
    19:00 +37°C° 0 mm 2 mps 741 mmHg 41%
    20:00 +36°C° 0 mm 2 mps 742 mmHg 43%
    21:00 +36°C° 0 mm 2 mps 742 mmHg 45%
    22:00 +35°C° 0 mm 2 mps 742 mmHg 46%
    23:00 +35°C° 0 mm 2 mps 742 mmHg 48%

    29 May, Tuesday

    Time Temperature Precipitation Wind Pressure Humidity
    00:00 +34°C° 0 mm 2 mps 742 mmHg 50%
    01:00 +34°C° 0 mm 3 mps 742 mmHg 52%
    02:00 +33°C° 0 mm 4 mps 742 mmHg 54%
    03:00 +33°C° 0 mm 4 mps 741 mmHg 56%
    04:00 +32°C° 0 mm 4 mps 741 mmHg 58%
    05:00 +32°C° 0 mm 4 mps 742 mmHg 61%
    06:00 +30°C° 0 mm 4 mps 742 mmHg 63%
    07:00 +32°C° 0 mm 4 mps 742 mmHg 61%
    08:00 +33°C° 0 mm 4 mps 743 mmHg 59%
    09:00 +34°C° 0 mm 5 mps 743 mmHg 56%
    10:00 +36°C° 0 mm 4 mps 743 mmHg 52%
    11:00 +37°C° 0 mm 4 mps 742 mmHg 47%
    12:00 +38°C° 0 mm 3 mps 742 mmHg 43%
    13:00 +39°C° 0 mm 3 mps 741 mmHg 41%
    14:00 +40°C° 0 mm 3 mps 740 mmHg 38%
    15:00 +40°C° 0 mm 3 mps 739 mmHg 36%
    16:00 +40°C° 0 mm 3 mps 739 mmHg 38%
    17:00 +39°C° 0 mm 3 mps 740 mmHg 39%
    18:00 +39°C° 0 mm 3 mps 740 mmHg 40%
    19:00 +38°C° 0 mm 3 mps 740 mmHg 42%
    20:00 +37°C° 0 mm 3 mps 741 mmHg 44%
    21:00 +37°C° 0 mm 3 mps 741 mmHg 46%
    22:00 +36°C° 0.4 mm 3 mps 741 mmHg 49%
    23:00 +35°C° 0.4 mm 3 mps 741 mmHg 52%

    30 May, Wednesday

    Time Temperature Precipitation Wind Pressure Humidity
    00:00 +34°C° 0.4 mm 4 mps 741 mmHg 55%
    01:00 +34°C° 0.1 mm 4 mps 740 mmHg 57%
    02:00 +33°C° 0.1 mm 4 mps 740 mmHg 59%
    03:00 +33°C° 0.1 mm 4 mps 740 mmHg 61%
    04:00 +32°C° 0 mm 4 mps 740 mmHg 63%
    05:00 +32°C° 0 mm 4 mps 740 mmHg 65%
    06:00 +30°C° 0 mm 4 mps 741 mmHg 67%
    07:00 +32°C° 0 mm 4 mps 741 mmHg 64%
    08:00 +33°C° 0 mm 5 mps 741 mmHg 62%
    09:00 +34°C° 0 mm 5 mps 742 mmHg 59%
    10:00 +35°C° 0 mm 5 mps 742 mmHg 54%
    11:00 +37°C° 0 mm 4 mps 741 mmHg 49%
    12:00 +38°C° 0 mm 4 mps 741 mmHg 44%
    13:00 +40°C° 0 mm 4 mps 740 mmHg 42%
    14:00 +41°C° 0 mm 4 mps 739 mmHg 40%
    15:00 +42°C° 0 mm 3 mps 739 mmHg 37%
    16:00 +40°C° 0 mm 3 mps 739 mmHg 38%
    17:00 +40°C° 0 mm 3 mps 739 mmHg 39%
    18:00 +39°C° 0 mm 3 mps 739 mmHg 41%
    19:00 +39°C° 0 mm 3 mps 740 mmHg 42%
    20:00 +38°C° 0 mm 3 mps 740 mmHg 44%
    21:00 +37°C° 0 mm 3 mps 741 mmHg 46%
    22:00 +36°C° 0.4 mm 4 mps 740 mmHg 50%
    23:00 +35°C° 0.4 mm 4 mps 740 mmHg 53%
    Show more